Dublin, Ireland

4:19 PM IST on October 01, 2016 (GMT +0100)
Dublin

Weather History for 03969 - September, 2012

Change the Weather History Date:

Thursday, September 13, 2012

  Actual Average Record
Temperature  
Mean Temperature 53 °F -  
Max Temperature 64 °F - - ()
Min Temperature 42 °F - - ()
Degree Days  
Heating Degree Days 12    
Growing Degree Days 3 (Base 50)    
Moisture  
Dew Point 48 °F    
Average Humidity 82    
Maximum Humidity 94    
Minimum Humidity 64    
Precipitation  
Precipitation 0.00 in - - ()
Sea Level Pressure  
Sea Level Pressure 30.02 in    
Wind  
Wind Speed 13 mph ()    
Max Wind Speed 34 mph    
Max Gust Speed 47 mph    
Visibility 6.8 miles    
Events Rain    
T = Trace of Precipitation, MM = Missing Value Source: Averaged Metar Reports

Daily Weather History Graph

Daily Weather History Graph

Search for Another Location

Airport or City:

Trip Planner

Search our weather history database for the weather conditions in past years. The results will help you decide how hot, cold, wet, or windy it might be!

Date:

Astronomy

Sep. 13, 2012 Rise Set
Actual Time 6:55 AM IST 7:44 PM IST
Civil Twilight 6:20 AM IST 8:20 PM IST
Nautical Twilight 5:37 AM IST 9:02 PM IST
Astronomical Twilight 4:51 AM IST 9:48 PM IST
Moon 3:41 AM IST (9/13) 6:12 PM IST (9/13)
Length of Visible Light 13h 59m
Length of Day
12h 49m
Waning Crescent, 8% of the Moon is Illuminated
Sep 13
Waning Crescent
Sep 16
New
Sep 22
First Quarter
Sep 30
Full
Oct 8
Last Quarter

Hourly Weather History & Observations

Time (IST) Temp. Windchill Dew Point Humidity Pressure Visibility Wind Dir Wind Speed Gust Speed Precip Events Conditions
12:00 AM 44.6 °F 40.2 °F 41.0 °F 87% 30.15 in 6.2 mi West 8.1 mph - N/A   Partly Cloudy
12:30 AM 44.6 °F 39.7 °F 41.0 °F 87% 30.12 in 6.2 mi West 9.2 mph - N/A   Scattered Clouds
1:00 AM 44 °F - 40 °F 82% 30.17 in 19 mi West 6.7 mph - -   Scattered Clouds
1:00 AM 42.8 °F 38.0 °F 41.0 °F 93% 30.15 in 6.2 mi West 8.1 mph - N/A   Scattered Clouds
1:30 AM 42.8 °F 38.6 °F 41.0 °F 93% 30.15 in 6.2 mi West 6.9 mph - N/A   Scattered Clouds
2:00 AM 44.6 °F 40.7 °F 41.0 °F 87% 30.15 in 6.2 mi West 6.9 mph - N/A   Scattered Clouds
2:30 AM 44.6 °F 40.2 °F 41.0 °F 87% 30.15 in 6.2 mi West 8.1 mph - N/A   Scattered Clouds
3:00 AM 44.6 °F 40.2 °F 41.0 °F 87% 30.12 in 6.2 mi WSW 8.1 mph - N/A   Scattered Clouds
3:30 AM 44.6 °F 40.7 °F 41.0 °F 87% 30.15 in 6.2 mi WSW 6.9 mph - N/A   Scattered Clouds
4:00 AM 44.6 °F 39.7 °F 41.0 °F 87% 30.12 in 6.2 mi WSW 9.2 mph - N/A   Scattered Clouds
4:30 AM 44.6 °F 39.7 °F 41.0 °F 87% 30.12 in 6.2 mi WSW 9.2 mph - N/A   Scattered Clouds
5:00 AM 44.6 °F 39.2 °F 41.0 °F 87% 30.12 in 6.2 mi WSW 10.4 mph - N/A   Scattered Clouds
5:30 AM 44.6 °F 39.2 °F 41.0 °F 87% 30.12 in 6.2 mi WSW 10.4 mph - N/A   Scattered Clouds
6:00 AM 46.4 °F 42.4 °F 42.8 °F 87% 30.12 in 6.2 mi WSW 8.1 mph - N/A   Mostly Cloudy
6:30 AM 48.2 °F - 42.8 °F 82% 30.12 in 6.2 mi WSW 9.2 mph - N/A   Mostly Cloudy
7:00 AM 48 °F - 44 °F 80% 30.12 in 16 mi SW 11.2 mph - - Rain Light Drizzle
7:00 AM 48.2 °F - 44.6 °F 87% 30.09 in 6.2 mi SW 10.4 mph - N/A   Light Drizzle
7:30 AM 48.2 °F - 44.6 °F 87% 30.09 in 6.2 mi SW 10.4 mph - N/A   Mostly Cloudy
8:00 AM 50.0 °F - 46.4 °F 87% 30.09 in 6.2 mi SW 10.4 mph - N/A   Mostly Cloudy
8:30 AM 51.8 °F - 48.2 °F 88% 30.06 in 6.2 mi SW 9.2 mph - N/A   Mostly Cloudy
9:00 AM 51.8 °F - 50.0 °F 94% 30.09 in 5.0 mi WSW 12.7 mph - N/A   Light Drizzle
9:30 AM 55.4 °F - 51.8 °F 88% 30.06 in 6.2 mi WSW 15.0 mph - N/A   Mostly Cloudy
10:00 AM 55.4 °F - 51.8 °F 88% 30.06 in 5.6 mi WSW 13.8 mph - N/A   Light Drizzle
10:30 AM 55.4 °F - 51.8 °F 88% 30.06 in 3.7 mi WSW 17.3 mph - N/A   Light Drizzle
11:00 AM 55.4 °F - 53.6 °F 94% 30.06 in 6.2 mi WSW 18.4 mph - N/A   Mostly Cloudy
11:30 AM 57.2 °F - 53.6 °F 88% 30.06 in 6.2 mi WSW 17.3 mph - N/A   Mostly Cloudy
12:00 PM 57.2 °F - 53.6 °F 88% 30.06 in 6.2 mi WSW 15.0 mph - N/A   Mostly Cloudy
12:30 PM 59.0 °F - 53.6 °F 82% 30.04 in 6.2 mi WSW 19.6 mph 31.1 mph N/A   Mostly Cloudy
1:00 PM 61 °F - 54 °F 70% 30.04 in 19 mi WSW 20.1 mph - -   Partly Cloudy
1:00 PM 60.8 °F - 53.6 °F 77% 30.04 in 6.2 mi WSW 20.7 mph - N/A   Mostly Cloudy
1:30 PM 62.6 °F - 53.6 °F 72% 30.01 in 6.2 mi WSW 20.7 mph - N/A   Mostly Cloudy
2:00 PM 62.6 °F - 51.8 °F 68% 30.01 in 6.2 mi WSW 25.3 mph - N/A   Mostly Cloudy
2:30 PM 62.6 °F - 51.8 °F 68% 29.98 in 6.2 mi WSW 24.2 mph - N/A   Mostly Cloudy
3:00 PM 62.6 °F - 51.8 °F 68% 29.98 in 6.2 mi WSW 26.5 mph - N/A   Mostly Cloudy
3:30 PM 62.6 °F - 51.8 °F 68% 29.95 in 6.2 mi WSW 24.2 mph - N/A   Mostly Cloudy
4:00 PM 62.6 °F - 51.8 °F 68% 29.95 in 6.2 mi WSW 29.9 mph - N/A   Mostly Cloudy
4:30 PM 62.6 °F - 51.8 °F 68% 29.95 in 6.2 mi West 26.5 mph - N/A   Scattered Clouds
5:00 PM 62.6 °F - 51.8 °F 68% 29.92 in 6.2 mi WSW 25.3 mph - N/A   Mostly Cloudy
5:30 PM 60.8 °F - 50.0 °F 68% 29.89 in 6.2 mi West 34.5 mph - N/A   Partly Cloudy
6:00 PM 60.8 °F - 51.8 °F 72% 29.89 in 6.2 mi WSW 33.4 mph 44.9 mph N/A   Partly Cloudy
6:30 PM 60.8 °F - 50.0 °F 68% 29.89 in 6.2 mi WSW 33.4 mph 47.2 mph N/A   Scattered Clouds
7:00 PM 60 °F - 51 °F 64% 29.88 in 25 mi WSW 26.8 mph - -   Mostly Cloudy
7:00 PM 59.0 °F - 51.8 °F 77% 29.89 in 6.2 mi WSW 27.6 mph 39.1 mph N/A   Mostly Cloudy
7:30 PM 59.0 °F - 51.8 °F 77% 29.86 in 6.2 mi WSW 26.5 mph - N/A   Mostly Cloudy
8:00 PM 59.0 °F - 51.8 °F 77% 29.86 in 6.2 mi WSW 25.3 mph 36.8 mph N/A Rain Light Rain
8:30 PM 59.0 °F - 53.6 °F 82% 29.86 in 6.2 mi WSW 27.6 mph 40.3 mph N/A Rain Light Rain
9:00 PM 57.2 °F - 53.6 °F 88% 29.86 in 6.2 mi WSW 21.9 mph - N/A Rain Light Rain
9:30 PM 57.2 °F - 53.6 °F 88% 29.86 in 6.2 mi WSW 17.3 mph - N/A   Light Drizzle
10:00 PM 57.2 °F - 53.6 °F 88% 29.86 in 6.2 mi SW 16.1 mph - N/A   Light Drizzle
10:30 PM 57.2 °F - 53.6 °F 88% 29.83 in 6.2 mi WSW 18.4 mph - N/A   Light Drizzle
11:00 PM 59.0 °F - 51.8 °F 77% 29.83 in 6.2 mi WSW 21.9 mph 33.4 mph N/A   Mostly Cloudy
11:30 PM 57.2 °F - 53.6 °F 88% 29.83 in 6.2 mi WSW 20.7 mph - N/A   Mostly Cloudy